DW4881 Weather Reports


time (UTC)temp
C
wind
direction
speed
KPH
gust
KPH
rain 1hr
cm
rain 24hr
cm
rain mn
cm
humidity
%
barometer
mb
20260507063030 12 293 1.6 6.4 0.00 0.00 0.00 78 1019.1
20260507062530 12 293 0.0 6.4 0.00 0.00 0.00 78 1019.0
20260507062030 12 293 3.2 8.0 0.00 0.00 0.00 78 1019.1
20260507061533 12 293 1.6 8.0 0.00 0.00 0.00 78 1019.0
20260507061029 12 293 1.6 8.0 0.00 0.00 0.00 78 1019.0
20260507060529 12 293 0.0 6.4 0.00 0.00 0.00 78 1019.1
20260507060035 12 293 1.6 8.0 0.00 0.00 0.00 79 1019.0
20260507055529 12 293 3.2 12.9 0.00 0.00 0.00 78 1019.0
20260507055032 12 294 1.6 12.9 0.00 0.00 0.00 78 1019.0
20260507054527 12 328 3.2 6.4 0.00 0.00 0.00 78 1019.0
20260507054026 12 12 1.6 4.8 0.00 0.00 0.00 78 1019.0
20260507053525 13 12 1.6 3.2 0.00 0.00 0.00 78 1019.0
20260507053025 13 12 0.0 3.2 0.00 0.00 0.00 78 1019.0
20260507052524 13 12 0.0 3.2 0.00 0.00 0.00 78 1018.8
20260507052024 13 12 1.6 4.8 0.00 0.00 0.00 78 1018.8
20260507051524 13 12 0.0 4.8 0.00 0.00 0.00 78 1018.8
20260507051023 13 12 1.6 6.4 0.00 0.00 0.00 78 1019.0
20260507050523 13 12 1.6 9.7 0.00 0.00 0.00 78 1018.9
20260507050027 13 308 1.6 9.7 0.00 0.00 0.00 78 1018.9
20260507045523 13 307 1.6 8.0 0.00 0.00 0.00 78 1018.9
20260507045022 13 307 4.8 12.9 0.00 0.00 0.00 78 1018.9
20260507044523 13 20 3.2 12.9 0.00 0.00 0.00 78 1018.9
20260507044021 13 19 0.0 11.3 0.00 0.00 0.00 79 1018.9
20260507043521 13 19 4.8 12.9 0.00 0.00 0.00 78 1018.9
20260507043021 13 289 4.8 12.9 0.00 0.00 0.00 78 1018.9
20260507042521 13 319 3.2 12.9 0.00 0.00 0.00 78 1018.8
20260507042019 13 316 3.2 8.0 0.00 0.00 0.00 78 1018.7
20260507041519 13 290 3.2 12.9 0.00 0.00 0.00 78 1018.7
20260507041019 13 13 3.2 12.9 0.00 0.00 0.00 78 1018.7
20260507040520 13 313 3.2 11.3 0.00 0.00 0.00 77 1018.6
20260507040019 13 9 1.6 6.4 0.00 0.00 0.00 78 1018.6
20260507035519 13 9 1.6 8.0 0.00 0.00 0.00 78 1018.6
20260507035018 13 10 3.2 8.0 0.00 0.00 0.00 77 1018.5
20260507034518 13 315 3.2 8.0 0.00 0.00 0.00 77 1018.4
20260507034019 13 321 3.2 8.0 0.00 0.00 0.00 77 1018.4
20260507033519 14 302 1.6 8.0 0.00 0.00 0.00 77 1018.3
20260507033021 14 340 0.0 6.4 0.00 0.00 0.00 76 1018.3
20260507032517 14 340 1.6 9.7 0.00 0.00 0.00 77 1018.2
20260507032020 14 360 1.6 9.7 0.00 0.00 0.00 77 1018.1
20260507031519 14 316 1.6 9.7 0.00 0.00 0.00 77 1018.0
20260507031020 15 300 3.2 11.3 0.00 0.00 0.00 76 1017.9
20260507030518 15 332 1.6 8.0 0.00 0.00 0.00 76 1017.9
20260507030018 15 337 3.2 8.0 0.00 0.00 0.00 76 1017.8
20260507025516 15 318 1.6 6.4 0.00 0.00 0.00 76 1017.8
20260507025016 15 318 3.2 6.4 0.00 0.00 0.00 75 1017.7
20260507024516 15 315 3.2 9.7 0.00 0.00 0.00 75 1017.6
20260507024020 15 316 3.2 9.7 0.00 0.00 0.00 75 1017.6
20260507023517 15 286 3.2 6.4 0.00 0.00 0.00 75 1017.5
20260507023016 16 25 3.2 6.4 0.00 0.00 0.00 75 1017.5
20260507022516 16 309 1.6 4.8 0.00 0.00 0.00 74 1017.6
20260507022018 16 297 0.0 6.4 0.00 0.00 0.00 75 1017.5
20260507021515 16 297 0.0 11.3 0.00 0.00 0.00 75 1017.5
20260507021015 16 297 3.2 11.3 0.00 0.00 0.00 74 1017.5
20260507020517 16 336 3.2 8.0 0.00 0.00 0.00 74 1017.5
20260507020016 16 9 3.2 12.9 0.00 0.00 0.00 74 1017.6
20260507015515 16 13 3.2 12.9 0.00 0.00 0.00 73 1017.5
20260507015014 16 286 3.2 11.3 0.00 0.00 0.00 73 1017.6
20260507014519 16 302 4.8 14.5 0.00 0.00 0.00 73 1017.6
20260507014014 16 17 1.6 14.5 0.00 0.00 0.00 73 1017.6
20260507013513 16 303 1.6 12.9 0.00 0.00 0.00 73 1017.6
20260507013013 16 309 4.8 9.7 0.00 0.00 0.00 73 1017.6
20260507012513 16 355 1.6 9.7 0.00 0.00 0.00 73 1017.6
20260507012017 16 347 3.2 9.7 0.00 0.00 0.00 73 1017.7
20260507011513 17 336 4.8 14.5 0.00 0.00 0.00 72 1017.7
20260507011013 17 22 3.2 14.5 0.00 0.00 0.00 72 1017.7
20260507010514 17 5 4.8 14.5 0.00 0.00 0.00 71 1017.7
20260507010012 17 306 4.8 14.5 0.00 0.00 0.00 70 1017.6
20260507005513 18 336 1.6 11.3 0.00 0.00 0.00 70 1017.5
20260507005015 18 331 4.8 12.9 0.00 0.00 0.00 70 1017.5
20260507004517 18 355 4.8 12.9 0.00 0.00 0.00 70 1017.6
20260507004015 18 24 3.2 11.3 0.00 0.00 0.00 69 1017.5
20260507003512 18 331 3.2 19.3 0.00 0.00 0.00 70 1017.5
20260507003010 18 320 4.8 19.3 0.00 0.00 0.00 69 1017.5
20260507002510 18 300 6.4 16.1 0.00 0.00 0.00 69 1017.5
20260507002010 18 299 3.2 16.1 0.00 0.00 0.00 69 1017.5
20260507001512 18 325 3.2 12.9 0.00 0.00 0.00 70 1017.4
20260507001012 18 319 3.2 14.5 0.00 0.00 0.00 70 1017.4
20260507000510 18 302 3.2 14.5 0.00 0.00 0.00 69 1017.4
20260507000010 19 287 8.0 12.9 0.00 0.00 0.00 70 1017.4
20260506235510 18 285 6.4 14.5 0.00 0.00 0.00 70 1017.4
20260506235008 18 288 4.8 14.5 0.00 0.00 0.00 70 1017.4
20260506234509 19 318 3.2 12.9 0.00 0.00 0.00 70 1017.4
20260506234008 20 309 4.8 12.9 0.00 0.00 0.00 70 1017.4
20260506233508 20 294 4.8 11.3 0.00 0.00 0.00 70 1017.4
20260506233007 20 297 4.8 14.5 0.00 0.00 0.00 71 1017.4
20260506232507 20 296 4.8 16.1 0.00 0.00 0.00 70 1017.3
20260506232007 20 302 6.4 12.9 0.00 0.00 0.00 69 1017.4
20260506231507 20 300 4.8 9.7 0.00 0.00 0.00 69 1017.4
20260506231009 20 292 3.2 8.0 0.00 0.00 0.00 70 1017.4
20260506230507 20 338 1.6 9.7 0.00 0.00 0.00 68 1017.4
20260506230007 20 19 4.8 9.7 0.00 0.00 0.00 67 1017.4
20260506225508 21 322 1.6 4.8 0.00 0.00 0.00 67 1017.4
20260506225005 20 88 0.0 4.8 0.00 0.00 0.00 68 1017.5
20260506224505 20 88 1.6 6.4 0.00 0.00 0.00 67 1017.6
20260506224005 20 88 1.6 6.4 0.00 0.00 0.00 68 1017.7
20260506223504 20 103 0.0 11.3 0.00 0.00 0.00 69 1017.7
20260506223004 20 110 4.8 11.3 0.00 0.00 0.00 68 1017.7
20260506222504 20 88 1.6 6.4 0.00 0.00 0.00 70 1017.6
20260506222004 20 360 0.0 8.0 0.00 0.00 0.00 70 1017.8
20260506221504 19 55 0.0 4.8 0.00 0.00 0.00 70 1017.9
20260506221007 19 55 0.0 4.8 0.00 0.00 0.00 70 1017.9
20260506220507 19 15 0.0 6.4 0.00 0.00 0.00 70 1017.8
20260506220010 19 15 0.0 6.4 0.00 0.00 0.00 69 1017.8
20260506215502 19 15 3.2 4.8 0.00 0.00 0.00 70 1017.8
20260506215002 19 13 1.6 6.4 0.00 0.00 0.00 69 1017.9
20260506214502 20 335 0.0 8.0 0.00 0.00 0.00 70 1017.8
20260506214003 20 334 3.2 8.0 0.00 0.00 0.00 67 1017.9
20260506213501 20 297 1.6 8.0 0.00 0.00 0.00 69 1017.8
20260506213001 20 177 1.6 6.4 0.00 0.00 0.00 68 1017.9
20260506212600 20 178 1.6 11.3 0.00 0.00 0.00 69 1017.8
20260506212102 20 150 4.8 11.3 0.00 0.00 0.00 68 1017.8
20260506211558 20 153 3.2 14.5 0.00 0.00 0.00 69 1017.9
20260506211057 19 208 3.2 8.0 0.00 0.00 0.00 70 1017.9
20260506210556 19 247 1.6 4.8 0.00 0.00 0.00 71 1018.1
20260506210056 18 228 1.6 9.7 0.00 0.00 0.00 71 1018.2
20260506205554 18 226 3.2 9.7 0.00 0.00 0.00 72 1018.2
20260506205052 18 302 1.6 4.8 0.00 0.00 0.00 72 1018.3
20260506204554 18 302 0.0 9.7 0.00 0.00 0.00 73 1018.2
20260506204051 18 302 0.0 9.7 0.00 0.00 0.00 72 1018.3
20260506203555 18 306 3.2 8.0 0.00 0.00 0.00 72 1018.3
20260506203051 18 344 3.2 6.4 0.00 0.00 0.00 73 1018.3
20260506202550 18 348 1.6 6.4 0.00 0.00 0.00 72 1018.2
20260506202049 18 101 0.0 11.3 0.00 0.00 0.00 73 1018.2
20260506201549 18 101 1.6 11.3 0.00 0.00 0.00 73 1018.2
20260506201047 17 130 1.6 6.4 0.00 0.00 0.00 73 1018.2
20260506200546 17 132 0.0 4.8 0.00 0.00 0.00 74 1018.3
20260506200046 17 132 0.0 6.4 0.00 0.00 0.00 74 1018.4
20260506195545 17 132 0.0 6.4 0.00 0.00 0.00 75 1018.4
20260506195045 17 132 1.6 4.8 0.00 0.00 0.00 75 1018.5
20260506194543 17 132 0.0 6.4 0.00 0.00 0.00 76 1018.5
20260506194045 16 134 1.6 6.4 0.00 0.00 0.00 77 1018.5
20260506193542 16 135 0.0 4.8 0.00 0.00 0.00 79 1018.6
20260506193043 16 135 0.0 6.4 0.00 0.00 0.00 78 1018.6
20260506192542 16 135 3.2 8.0 0.00 0.00 0.00 77 1018.7
20260506192043 16 310 3.2 9.7 0.00 0.00 0.00 76 1018.7
20260506191542 16 310 3.2 9.7 0.00 0.00 0.00 76 1018.7
20260506191041 16 78 1.6 4.8 0.00 0.00 0.00 76 1018.6
20260506190540 16 78 1.6 6.4 0.00 0.00 0.00 76 1018.6
20260506190040 16 78 0.0 6.4 0.00 0.00 0.00 75 1018.5
20260506185538 16 78 0.0 8.0 0.00 0.00 0.00 77 1018.5
20260506185037 16 76 3.2 8.0 0.00 0.00 0.00 77 1018.5
20260506184536 16 72 1.6 8.0 0.00 0.00 0.00 77 1018.6
20260506184036 16 70 0.0 4.8 0.00 0.00 0.00 79 1018.5
20260506183537 16 69 1.6 4.8 0.00 0.00 0.00 80 1018.5
20260506183034 16 69 0.0 4.8 0.00 0.00 0.00 80 1018.5
20260506182532 15 69 0.0 6.4 0.00 0.00 0.00 80 1018.5
20260506182032 15 69 1.6 6.4 0.00 0.00 0.00 80 1018.4
20260506181532 15 69 1.6 8.0 0.00 0.00 0.00 80 1018.4
20260506181032 15 69 1.6 8.0 0.00 0.00 0.00 80 1018.6
20260506180534 15 69 0.0 6.4 0.00 0.00 0.00 81 1018.6
20260506180041 15 69 0.0 3.2 0.00 0.00 0.00 81 1018.5
20260506175532 15 69 0.0 4.8 0.00 0.00 0.00 81 1018.6
20260506175031 15 69 0.0 8.0 0.00 0.00 0.00 81 1018.6
20260506174531 15 69 3.2 8.0 0.00 0.00 0.00 81 1018.5
20260506174030 14 69 0.0 3.2 0.00 0.00 0.00 82 1018.5
20260506173530 14 69 0.0 4.8 0.00 0.00 0.00 82 1018.5
20260506173030 14 69 1.6 4.8 0.00 0.00 0.00 82 1018.4
20260506172529 14 69 1.6 8.0 0.00 0.00 0.00 81 1018.4
20260506172029 14 69 0.0 8.0 0.00 0.00 0.00 81 1018.4
20260506171529 14 69 0.0 6.4 0.00 0.00 0.00 82 1018.3
20260506171031 14 69 0.0 6.4 0.00 0.00 0.00 82 1018.3
20260506170528 14 69 0.0 4.8 0.00 0.00 0.00 82 1018.2
20260506170028 14 69 0.0 4.8 0.00 0.00 0.00 82 1018.3
20260506165528 14 69 0.0 8.0 0.00 0.00 0.00 82 1018.3
20260506165028 14 69 0.0 8.0 0.00 0.00 0.00 82 1018.2
20260506164528 14 69 0.0 4.8 0.00 0.00 0.00 82 1018.3
20260506164027 14 69 0.0 4.8 0.00 0.00 0.00 81 1018.4
20260506163527 14 69 0.0 6.4 0.00 0.00 0.00 82 1018.4
20260506163049 14 69 0.0 6.4 0.00 0.00 0.00 82 1018.4
20260506162528 14 69 0.0 6.4 0.00 0.00 0.00 82 1018.4
20260506162031 14 69 1.6 6.4 0.00 0.00 0.00 82 1018.4
20260506161527 14 69 0.0 6.4 0.00 0.00 0.00 82 1018.4
20260506161026 14 69 0.0 4.8 0.00 0.00 0.00 83 1018.4
20260506160526 13 69 0.0 4.8 0.00 0.00 0.00 82 1018.1
20260506160026 13 69 1.6 4.8 0.00 0.00 0.00 82 1017.9
20260506155525 13 69 1.6 4.8 0.00 0.00 0.00 83 1018.1
20260506155025 13 69 0.0 6.4 0.00 0.00 0.00 83 1017.9
20260506154524 13 69 0.0 6.4 0.00 0.00 0.00 83 1017.6
20260506154028 13 69 3.2 6.4 0.00 0.00 0.00 83 1017.8
20260506153524 13 69 1.6 4.8 0.00 0.00 0.00 83 1017.7
20260506153023 13 69 1.6 8.0 0.00 0.00 0.00 83 1017.5
20260506152524 13 69 0.0 8.0 0.00 0.00 0.00 83 1017.7
20260506152023 13 69 1.6 6.4 0.00 0.00 0.00 84 1017.6
20260506151523 13 69 1.6 3.2 0.00 0.00 0.00 83 1017.9
20260506151024 13 69 0.0 3.2 0.00 0.00 0.00 83 1018.1
20260506150523 13 69 0.0 1.6 0.00 0.00 0.00 83 1018.2
20260506150026 13 69 0.0 3.2 0.00 0.00 0.00 84 1018.3
20260506145525 13 69 0.0 3.2 0.00 0.00 0.00 84 1018.3
20260506145020 13 69 0.0 3.2 0.00 0.00 0.00 84 1018.2
20260506144523 13 69 0.0 3.2 0.00 0.00 0.00 84 1018.2
20260506144020 13 69 0.0 3.2 0.00 0.00 0.00 83 1018.1
20260506143522 13 69 1.6 3.2 0.00 0.00 0.00 83 1018.0
20260506143019 13 69 0.0 3.2 0.00 0.00 0.00 83 1017.9
20260506142518 13 69 0.0 0.0 0.00 0.00 0.00 83 1018.1
20260506142016 13 69 0.0 0.0 0.00 0.00 0.00 83 1017.8
20260506141516 13 69 0.0 4.8 0.00 0.00 0.00 83 1017.7
20260506141015 13 69 0.0 4.8 0.00 0.00 0.00 83 1017.5
20260506140516 13 69 1.6 6.4 0.00 0.00 0.00 83 1017.3
20260506140014 13 69 0.0 6.4 0.00 0.00 0.00 83 1017.2
20260506135513 13 69 0.0 3.2 0.00 0.00 0.00 83 1017.3
20260506135013 13 69 0.0 3.2 0.00 0.00 0.00 83 1017.3
20260506134512 13 69 0.0 0.0 0.00 0.00 0.00 83 1017.3
20260506134016 13 69 0.0 0.0 0.00 0.00 0.00 83 1017.2
20260506133513 13 69 0.0 0.0 0.00 0.00 0.00 82 1017.2
20260506133014 13 69 0.0 0.0 0.00 0.00 0.00 81 1017.2
20260506132511 13 69 0.0 0.0 0.00 0.00 0.00 83 1017.1
20260506132010 13 69 0.0 0.0 0.00 0.00 0.00 83 1017.2
20260506131513 13 69 0.0 0.0 0.00 0.00 0.00 83 1017.1
20260506131010 13 69 0.0 0.0 0.00 0.00 0.00 82 1017.1
20260506130513 13 69 0.0 0.0 0.00 0.00 0.00 81 1016.9
20260506130009 13 69 0.0 0.0 0.00 0.00 0.00 83 1016.9
20260506125507 13 69 0.0 1.6 0.00 0.00 0.00 83 1016.8
20260506125007 13 69 0.0 3.2 0.00 0.00 0.00 83 1016.7
20260506124507 13 69 0.0 3.2 0.00 0.00 0.00 83 1016.8
20260506124006 13 69 0.0 4.8 0.00 0.00 0.00 83 1016.7
20260506123506 13 69 0.0 4.8 0.00 0.00 0.00 83 1016.7
20260506123006 13 69 0.0 4.8 0.00 0.00 0.00 83 1016.5
20260506122506 13 69 0.0 3.2 0.00 0.00 0.00 82 1016.6
20260506122004 13 69 0.0 3.2 0.00 0.00 0.00 82 1016.6
20260506121505 13 69 0.0 3.2 0.00 0.00 0.00 82 1016.7
20260506121004 13 69 0.0 0.0 0.00 0.00 0.00 82 1016.7
20260506120504 13 69 0.0 0.0 0.00 0.00 0.00 81 1016.7
20260506120006 13 69 0.0 0.0 0.00 0.00 0.00 82 1016.8
20260506115509 13 69 0.0 0.0 0.00 0.00 0.00 82 1016.7
20260506115002 13 69 0.0 0.0 0.00 0.00 0.00 81 1016.6
20260506114504 13 69 0.0 3.2 0.00 0.00 0.00 80 1016.6
20260506114001 13 69 0.0 3.2 0.00 0.00 0.00 81 1016.5
20260506113600 14 69 0.0 0.0 0.00 0.00 0.00 81 1016.5
20260506113100 14 69 0.0 0.0 0.00 0.00 0.00 81 1016.3
20260506112559 14 69 0.0 0.0 0.00 0.00 0.00 80 1016.4
20260506112059 13 69 0.0 0.0 0.00 0.00 0.00 80 1016.4
20260506111559 13 69 0.0 0.0 0.00 0.00 0.00 80 1016.3
20260506111058 13 69 0.0 3.2 0.00 0.00 0.00 81 1016.3
20260506110557 13 69 0.0 3.2 0.00 0.00 0.00 81 1016.2
20260506105558 14 69 0.0 1.6 0.00 0.00 0.00 80 1016.0
20260506105055 14 69 0.0 0.0 0.00 0.00 0.00 81 1015.9
20260506104553 14 69 0.0 0.0 0.00 0.00 0.00 81 1015.9
20260506104053 14 69 0.0 0.0 0.00 0.00 0.00 81 1015.8
20260506103552 14 69 0.0 0.0 0.00 0.00 0.00 80 1015.8
20260506103054 14 69 0.0 0.0 0.00 0.00 0.00 80 1015.8
20260506102551 14 69 0.0 0.0 0.00 0.00 0.00 80 1015.6
20260506102050 15 69 0.0 0.0 0.00 0.00 0.00 80 1015.6
20260506101559 15 69 0.0 0.0 0.00 0.00 0.00 79 1015.6
20260506101053 15 69 0.0 0.0 0.00 0.00 0.00 79 1015.5
20260506100551 15 69 0.0 0.0 0.00 0.00 0.00 79 1015.4
20260506100049 14 69 0.0 0.0 0.00 0.00 0.00 77 1015.3
20260506095552 14 69 0.0 0.0 0.00 0.00 0.00 79 1015.4
20260506095048 14 69 0.0 0.0 0.00 0.00 0.00 78 1015.3
20260506094606 14 69 0.0 0.0 0.00 0.00 0.00 80 1015.3
20260506094045 14 69 0.0 3.2 0.00 0.00 0.00 80 1015.2
20260506093546 14 69 0.0 3.2 0.00 0.00 0.00 80 1015.2
20260506093052 14 69 0.0 3.2 0.00 0.00 0.00 80 1015.2
20260506092545 15 69 0.0 3.2 0.00 0.00 0.00 79 1015.1
20260506092044 15 69 0.0 1.6 0.00 0.00 0.00 79 1015.2
20260506091544 15 69 0.0 0.0 0.00 0.00 0.00 79 1015.2
20260506091042 15 69 0.0 1.6 0.00 0.00 0.00 79 1015.1
20260506090541 15 69 0.0 1.6 0.00 0.00 0.00 79 1015.1
20260506090042 15 69 0.0 1.6 0.00 0.00 0.00 79 1015.1
20260506085541 15 69 0.0 0.0 0.00 0.00 0.00 79 1015.1
20260506085041 15 69 0.0 0.0 0.00 0.00 0.00 79 1015.1
20260506084540 15 69 0.0 0.0 0.00 0.00 0.00 79 1015.1
20260506084044 15 69 0.0 0.0 0.00 0.00 0.00 79 1015.1
20260506083541 15 69 0.0 0.0 0.00 0.00 0.00 79 1015.0
20260506083040 15 69 0.0 0.0 0.00 0.00 0.00 78 1015.1
20260506082543 15 69 0.0 0.0 0.00 0.00 0.00 79 1015.0
20260506082039 15 69 0.0 0.0 0.00 0.00 0.00 78 1015.0
20260506081539 15 69 0.0 0.0 0.00 0.00 0.00 79 1015.0
20260506081039 15 69 0.0 0.0 0.00 0.00 0.00 80 1015.0
20260506080539 15 69 0.0 0.0 0.00 0.00 0.00 80 1015.0
20260506073041 15 69 0.0 0.0 0.00 0.00 0.00 78 1014.8
20260506072533 15 69 0.0 0.0 0.00 0.00 0.00 77 1014.8
20260506072034 15 69 0.0 0.0 0.00 0.00 0.00 76 1014.8
20260506071534 15 69 0.0 0.0 0.00 0.00 0.00 79 1014.7
20260506071031 15 69 0.0 1.6 0.00 0.00 0.00 77 1014.7
20260506070531 15 69 0.0 1.6 0.00 0.00 0.00 79 1014.7